Location: Unspecified
(41.1637°N, 24.2901°E)
Time: 01:35:11
(UTC+01:00)

ISS - Pass Details

Date: 19 January 2026
Orbit: 413 x 424 km, 51.6° (Epoch: 16 January)

Event Time Altitude Azimuth Distance (km) Brightness Sun altitude
Rises 17:03:35 0° 278° (W) 2,346 1.3 -7.8°
Reaches altitude 10° 17:06:07 10° 298° (WNW) 1,486 -0.3 -8.2°
Maximum altitude 17:08:32 18° 344° (NNW) 1,084 -1.7 -8.7°
Drops below altitude 10° 17:10:58 10° 31° (NNE) 1,492 -1.4 -9.1°
Enters shadow 17:11:21 - 35° (NE) 1,609 -1.3 -9.2°
